Location: Unspecified
(0.0000°N, 0.0000°E)
Time: 16:10:51
(UTC+00:00)

Envisat - Pass Details

Date: 17 August 2017
Orbit: 764 x 766 km, 98.2° (Epoch: 18 August)

Event Time Altitude Azimuth Distance (km) Brightness Sun altitude
Exits shadow 20:00:57 15° 13° (NNE) 1,989 5.1 -28.4°
Drops below altitude 10° 20:01:47 10° 9° (N) 2,291 5.5 -28.6°
Sets 20:04:12 0° 2° (N) 3,214 6.4 -29.2°
